Showing default

GLOBALSTAR M066, 32265

Orbit data source: Space-Track

GLOBALSTAR M066, 32265 is a payload satellite owned by Globalstar (US) in LEO that was launched on Sat, 20 Oct 2007 UTC via a SOYUZ-FG launch vehicle from the Tyuratam Missile And Space Complex (TTMTR). Payload-class satellites include a variety of spacecraft equipped with specific instruments for various scientific and technological missions. These include communications satellites like Starlink; space stations such as the ISS; scientific satellites like the Hubble; Earth observation satellites from companies like Planet Labs, Umbra, and HawkEye 360; GPS; miniature CubeSats for education and research; and military/defense satellites.

Loading next visibility...
Identifier
32265, 2007-048C
Orbit
LEO
Country
Flag of UnknownUnknown / GLOB
Related business
Manufacturer
SS/Loral
Mission
Operational Commercial Communications
Bus & Motor
LS-400, LS-400 AOCS
Mass
450 kg wet, 380 kg dry
Launch date (UTC)
2007-10-20 (18 years ago)
Launch vehicle
SOYUZ-FG
Launch site
Tyuratam Missile And Space Complex (TTMTR)
Object type
Payload
Rocket body
Debris
Shape & HBR
Box + 2 Pan, 6.0 m
Radar Cross Section
5.587 m², Large (>1 m²)

Expand to show TLE details & history
Last TLE update: 8 hours ago

TLE from 8 hours ago
0 GLOBALSTAR M066
1 32265U 07048C   25289.06465977 -.00000106  00000-0 -95508-4 0  9997
2 32265  51.9608  38.7121 0004300 246.0527 284.8373 12.30377806830175
Epoch: 2025-10-16T01:33Z
TLE epoch observation values (Epoch: 2025-10-16T01:33:06.604Z)
Latitude
7.1724°
Longitude
164.98216°
Altitude
1,546.813 km
Speed
7.095 km/s
True Right ascension
14h 12m 21s
True Declination
7° 08' 03"
Sunlit
Object was in daylight at epoch
Visualization orbit readout
Latitude
Unknown
Longitude
Unknown
Altitude
Unknown
Speed
Unknown
Apparent Right ascension
Unknown
Apparent Declination
Unknown
Sunlit
N/A
Visualization observer readout
Local Sidereal Time
03:45:38
Azimuth
Unknown
Elevation
Unknown
Doppler factor
Unknown
Orbital elements
Apogee altitude
1,551.458 km
Perigee altitude
1,544.641 km
Semi-major axis
7,926.187 km
Eccentricity
0.00043
Inclination
51.9608°
RAAN
38.7121°
Arg. of periapsis
246.0527°
True anomaly
284.78966°
Mean anomaly
284.8373°
Eccentric anomaly
284.81348°
Mean motion
3.07572 °/min
Orbital period
117.05 mins
BSTAR
-0.000095508
Loading maneuver chart data...
Computing Atmospheric mass density...
Loading historical data...
Loading historical data...
Loading historical data...
Loading historical data...
Loading historical data...
Loading historical data...
Loading historical data...
Other satellites on launch #48 in the year 2007 (2007-10-20 UTC)

Documentation

Showing up to 5 results
|